Location: Poughquag
(41.6090°N, 73.6820°W)
Time: 11:25:31
(UTC-04:00)

Tiros 1 - Pass Details

Date: 02 June 2020
Orbit: 630 x 664 km, 48.4° (Epoch: 06 July)

Event Time Altitude Azimuth Distance (km) Brightness Sun altitude
Rises 19:37:31 0° 287° (WNW) 2,934 12.9 6.8°
Reaches altitude 10° 19:40:35 10° 266° (W) 2,015 11.0 6.3°
Maximum altitude 19:43:28 16° 227° (SW) 1,623 9.6 5.8°
Drops below altitude 10° 19:46:20 10° 189° (S) 1,999 9.5 5.3°
Sets 19:49:22 0° 168° (SSE) 2,899 10.1 4.8°
